1297468826940,0.644625
1297468886940,0.645100
1297468946940,0.643110
1297469006940,0.643774
1297469066940,0.643500
1297469126940,0.647190
1297469186940,0.649415
1297469246940,0.649389
1297469306940,0.643900
1297469366940,0.647677
1297469426940,0.643633
1297469486940,0.641541
1297469546940,0.642521
1297469606940,0.650815
1297469666940,0.653993
1297469726940,0.643748
1297469786940,0.645126
1297469846940,0.648170
1297469906940,0.643321
1297469966940,0.653344
1297470026940,0.646481
1297470086940,0.644760
1297470146940,0.644069
1297470206940,0.645127
1297470266940,0.649287
1297470326940,0.644111
1297470386940,0.644605
1297470446940,0.649230
1297470506940,0.643570
1297470566940,0.640786
1297470626940,0.645934
1297470686940,0.638920
1297470746940,0.647489
1297470806940,0.642704
1297470866940,0.641763
1297470926940,0.642562
1297470986940,0.637612
1297471046940,0.642361
1297471106940,0.638545
1297471166940,0.646129
1297471226940,0.641813
1297471286940,0.637708
1297471346940,0.642030
1297471406940,0.637129
1297471466940,0.635971
1297471526940,0.641557
1297471586940,0.636946
1297471646940,0.642004
1297471706940,0.639691
1297471766940,0.638490
1297471826940,0.637755
1297471886940,0.644008
1297471946940,0.646721
1297472006940,0.644846
1297472066940,0.637345
1297472126940,0.639782
1297472186940,0.641016
1297472246940,0.645079
1297472306940,0.637415
1297472366940,0.642926
1297472426951,0.639041
1297472486951,0.645896
1297472546951,0.640754
1297472606951,0.644454
1297472666951,0.652750
1297472726951,0.650833
1297472786951,0.649348
1297472846951,0.646098
1297472906951,0.647054
1297472966951,0.653217
1297473026951,0.651108
1297473086951,0.648693
1297473146951,0.654253
1297473206951,0.657341
1297473266951,0.663210
1297473326951,0.661811
1297473386951,0.665295
1297473446951,0.664259
1297473506951,0.666020
1297473566951,0.669097
1297473626951,0.669514
1297473686951,0.670707
1297473746951,0.667769
1297473806951,0.675464
1297473866951,0.675076
1297473926951,0.664886
1297473986951,0.665142
1297474046951,0.661830
1297474106951,0.669278
1297474166951,0.668468
1297474226951,0.664436
1297474286951,0.675097
1297474346951,0.670200
1297474406951,0.667337
1297474466951,0.675596
1297474526951,0.675999
1297474586951,0.666793
1297474646951,0.670919
1297474706951,0.671272
1297474766951,0.673275
1297474826951,0.666220
1297474886951,0.669122
1297474946951,0.666437
1297475006951,0.660447
1297475066951,0.662301
1297475126951,0.661292
1297475186951,0.658819
1297475246951,0.655652
1297475306951,0.661588
1297475366951,0.663178
1297475426951,0.653871
1297475486951,0.653113
1297475546951,0.653370
1297475606951,0.662490
1297475666951,0.656276
1297475726951,0.654370
1297475786951,0.657541
1297475846951,0.653188
1297475906951,0.649361
1297475966951,0.658997
1297476026962,0.655495
1297476086962,0.654263
1297476146962,0.654981
1297476206962,0.655325
1297476266962,0.655756
1297476326962,0.654228
1297476386962,0.658980
1297476446962,0.656806
1297476506962,0.659939
1297476566962,0.653514
1297476626962,0.653910
1297476686962,0.655059
1297476746962,0.659678
1297476806962,0.655159
1297476866962,0.657343
1297476926962,0.648988
1297476986962,0.653407
1297477046962,0.658960
1297477106962,0.653673
1297477166962,0.656068
1297477226962,0.658691
1297477286962,0.654323
1297477346962,0.654904
1297477406962,0.649256
1297477466962,0.657987
1297477526962,0.654899
1297477586962,0.660049
1297477646962,0.646318
1297477706962,0.649568
1297477766962,0.650315
1297477826962,0.648866
1297477886962,0.645743
1297477946962,0.654554
1297478006962,0.655896
1297478066962,0.647343
1297478126962,0.645666
1297478186962,0.646526
1297478246962,0.652004
1297478306962,0.650584
1297478366962,0.656570
1297478426962,0.651898
1297478486962,0.645738
1297478546962,0.655670
1297478606962,0.651026
1297478666962,0.653756
1297478726962,0.656215
1297478786962,0.659481
1297478846962,0.658083
1297478906962,0.654195
1297478966962,0.661975
1297479026962,0.667079
1297479086962,0.669380
1297479146962,0.660673
1297479206962,0.659619
1297479266962,0.664912
1297479326962,0.667658
1297479386962,0.669039
1297479446962,0.659103
1297479506962,0.665200
1297479566962,0.654170
1297479626973,0.661064
1297479686973,0.654328
1297479746973,0.655450
1297479806973,0.658847
1297479866973,0.660442
1297479926973,0.657088
1297479986973,0.650679
1297480046973,0.654297
1297480106973,0.650291
1297480166973,0.651248
1297480226973,0.648385
1297480286973,0.653387
1297480346973,0.647116
1297480406973,0.648017
1297480466973,0.653227
1297480526973,0.650907
1297480586973,0.645786
1297480646973,0.642142
1297480706973,0.651137
1297480766973,0.649903
1297480826973,0.651083
1297480886973,0.650746
1297480946973,0.654762
1297481006973,0.646542
1297481066973,0.645588
1297481126973,0.653621
1297481186973,0.651331
1297481246973,0.653395
1297481306973,0.653976
1297481366973,0.652711
1297481426973,0.651573
1297481486973,0.644405
1297481546973,0.641583
1297481606973,0.651862
1297481666973,0.651956
1297481726973,0.642475
1297481786973,0.648894
1297481846973,0.646088
1297481906973,0.648492
1297481966973,0.648241
1297482026973,0.646526
1297482086973,0.639228
1297482146973,0.651756
1297482206973,0.650196
1297482266973,0.645024
1297482326973,0.642886
1297482386973,0.651322
1297482446973,0.646874
1297482506973,0.643504
1297482566973,0.648884
1297482626973,0.646090
1297482686973,0.638376
1297482746973,0.642984
1297482806973,0.646907
1297482866973,0.648181
1297482926973,0.650592
1297482986973,0.646175
1297483046973,0.647463
1297483106973,0.646909
1297483166973,0.652896
1297483226984,0.648220
1297483286984,0.649977
1297483346984,0.643262
1297483406984,0.652777
1297483466984,0.649076
1297483526984,0.649588
1297483586984,0.653106
1297483646984,0.646653
1297483706984,0.655204
1297483766984,0.644098
1297483826984,0.654492
1297483886984,0.649077
1297483946984,0.646869
1297484006984,0.651509
1297484066984,0.641527
1297484126984,0.651090
1297484186984,0.652748
1297484246984,0.654911
1297484306984,0.649856
1297484366984,0.660318
1297484426984,0.654646
1297484486984,0.667266
1297484546984,0.666044
1297484606984,0.665969
1297484666984,0.668276
1297484726984,0.657608
1297484786984,0.664979
1297484846984,0.664451
1297484906984,0.660795
1297484966984,0.657904
1297485026984,0.655342
1297485086984,0.659815
1297485146984,0.660950
1297485206984,0.658387
1297485266984,0.671051
1297485326984,0.657434
1297485386984,0.657555
1297485446984,0.656444
1297485506984,0.659510
1297485566984,0.661137
1297485626984,0.660533
1297485686984,0.652962
1297485746984,0.656073
1297485806984,0.653631
1297485866984,0.653227
1297485926984,0.655991
1297485986984,0.656223
1297486046984,0.650642
1297486106984,0.653016
1297486166984,0.660583
1297486226984,0.660522
1297486286984,0.659464
1297486346984,0.653907
1297486406984,0.652156
1297486466984,0.659056
1297486526984,0.654857
1297486586984,0.652332
1297486646984,0.648135
1297486706984,0.650205
1297486766984,0.652550
1297486826995,0.655645
1297486886995,0.655724
1297486946995,0.651342
1297487006995,0.659867
1297487066995,0.652905
1297487126995,0.652988
1297487186995,0.655328
1297487246995,0.656238
1297487306995,0.659622
1297487366995,0.655447
1297487426995,0.650811
1297487486995,0.651074
1297487546995,0.650349
1297487606995,0.644329
1297487666995,0.655777
1297487726995,0.661702
1297487786995,0.647096
1297487846995,0.655654
1297487906995,0.652709
1297487966995,0.654248
1297488026995,0.652287
1297488086995,0.653717
1297488146995,0.655042
1297488206995,0.656575
1297488266995,0.658476
1297488326995,0.658946
1297488386995,0.657682
1297488446995,0.652929
1297488506995,0.652823
1297488566995,0.656991
1297488626995,0.658356
1297488686995,0.661621
1297488746995,0.658307
1297488806995,0.660895
1297488866995,0.662033
1297488926995,0.659948
1297488986995,0.662812
1297489046995,0.654742
1297489106995,0.657039
1297489166995,0.662617
1297489226995,0.660606
1297489286995,0.659290
1297489346995,0.652930
1297489406995,0.652471
1297489466995,0.654412
1297489526995,0.657580
1297489586995,0.663793
1297489646995,0.654076
1297489706995,0.665170
1297489766995,0.663066
1297489826995,0.657712
1297489886995,0.655814
1297489946995,0.659831
1297490006995,0.659726
1297490066995,0.658135
1297490126995,0.659072
1297490186995,0.653822
1297490246995,0.656787
1297490306995,0.660374
1297490366995,0.659185
1297490427007,0.661390
1297490487007,0.652302
1297490547007,0.659741
1297490607007,0.659394
1297490667007,0.661997
1297490727007,0.656843
1297490787007,0.662461
1297490847007,0.663001
1297490907007,0.663685
1297490967007,0.662908
1297491027007,0.662021
1297491087007,0.666299
1297491147007,0.667264
1297491207007,0.669481
1297491267007,0.664475
1297491327007,0.666502
1297491387007,0.664652
1297491447007,0.669082
1297491507007,0.665148
1297491567007,0.663365
1297491627007,0.673299
1297491687007,0.659724
1297491747007,0.665121
1297491807007,0.664082
1297491867007,0.666053
1297491927007,0.667598
1297491987007,0.663399
1297492047007,0.667149
1297492107007,0.662846
1297492167007,0.665063
1297492227007,0.656910
1297492287007,0.658805
1297492347007,0.661024
1297492407007,0.656696
1297492467007,0.665871
1297492527007,0.656506
1297492587007,0.655651
1297492647007,0.660835
1297492707007,0.655890
1297492767007,0.656024
1297492827007,0.657094
1297492887007,0.658084
1297492947007,0.659011
1297493007007,0.660084
1297493067007,0.664958
1297493127007,0.663424
1297493187007,0.666914
1297493247007,0.667847
1297493307007,0.663645
1297493367007,0.675526
1297493427007,0.668020
1297493487007,0.663322
1297493547007,0.662750
1297493607007,0.670076
1297493667007,0.668608
1297493727007,0.660634
1297493787007,0.667348
1297493847007,0.671430
1297493907007,0.671484
1297493967007,0.674021
1297494027018,0.668355
1297494087018,0.670717
1297494147018,0.668760
1297494207018,0.664771
1297494267018,0.661466
1297494327018,0.663415
1297494387018,0.667595
1297494447018,0.664905
1297494507018,0.663526
1297494567018,0.669339
1297494627018,0.658913
1297494687018,0.659400
1297494747018,0.664150
1297494807018,0.656576
1297494867018,0.662673
1297494927018,0.665364
1297494987018,0.661866
1297495047018,0.660249
1297495107018,0.660604
1297495167018,0.660616
1297495227018,0.660361
1297495287018,0.671613
1297495347018,0.658961
1297495407018,0.657127
1297495467018,0.665444
1297495527018,0.659891
1297495587018,0.663114
1297495647018,0.669967
1297495707018,0.663065
1297495767018,0.662245
1297495827018,0.661918
1297495887018,0.669856
1297495947018,0.665167
1297496007018,0.663382
1297496067018,0.661098
1297496127018,0.664574
1297496187018,0.669163
1297496247018,0.657282
1297496307018,0.670139
1297496367018,0.666465
1297496427018,0.662114
1297496487018,0.659954
1297496547018,0.662103
1297496607018,0.662782
1297496667018,0.665315
1297496727018,0.660685
1297496787018,0.659725
1297496847018,0.660378
1297496907018,0.657065
1297496967018,0.664499
1297497027018,0.668490
1297497087018,0.664478
1297497147018,0.669466
1297497207018,0.661286
1297497267018,0.669559
1297497327018,0.666699
1297497387018,0.670993
1297497447018,0.676029
1297497507018,0.668059
1297497567018,0.671397
1297497627030,0.666445
1297497687030,0.670331
1297497747030,0.671691
1297497807030,0.674293
1297497867030,0.670155
1297497927030,0.668929
1297497987030,0.669654
1297498047030,0.670465
1297498107030,0.667154
1297498167030,0.670632
1297498227030,0.667896
1297498287030,0.675178
1297498347030,0.670654
1297498407030,0.662695
1297498467030,0.666496
1297498527030,0.667423
1297498587030,0.662796
1297498647030,0.664156
1297498707030,0.670640
1297498767030,0.673064
1297498827030,0.668063
1297498887030,0.664980
1297498947030,0.659349
1297499007030,0.667065
1297499067030,0.668631
1297499127030,0.668301
1297499187030,0.659253
1297499247030,0.663880
1297499307030,0.660877
1297499367030,0.662743
1297499427030,0.661093
1297499487030,0.664486
1297499547030,0.665393
1297499607030,0.669054
1297499667030,0.670338
1297499727030,0.666099
1297499787030,0.667175
1297499847030,0.667235
1297499907030,0.671229
1297499967030,0.671222
1297500027030,0.667273
1297500087030,0.668750
1297500147030,0.667541
1297500207030,0.666161
1297500267030,0.670451
1297500327030,0.670663
1297500387030,0.671504
1297500447030,0.673436
1297500507030,0.671734
1297500567030,0.670819
1297500627030,0.673173
1297500687030,0.669473
1297500747030,0.667519
1297500807030,0.662093
1297500867030,0.666569
1297500927030,0.667172
1297500987030,0.666089
1297501047030,0.665556
1297501107030,0.668379
1297501167030,0.667847
1297501227042,0.674394
1297501287042,0.666223
1297501347042,0.665414
1297501407042,0.668210
1297501467042,0.665779
1297501527042,0.660956
1297501587042,0.666668
1297501647042,0.668908
1297501707042,0.663821
1297501767042,0.671747
1297501827042,0.659910
1297501887042,0.663580
1297501947042,0.661780
1297502007042,0.665518
1297502067042,0.664314
1297502127042,0.663171
1297502187042,0.668897
1297502247042,0.650018
1297502307042,0.668513
1297502367042,0.669962
1297502427042,0.659402
1297502487042,0.664465
1297502547042,0.667776
1297502607042,0.662147
1297502667042,0.664502
1297502727042,0.657474
1297502787042,0.665924
1297502847042,0.666016
1297502907042,0.662077
1297502967042,0.666742
1297503027042,0.661795
1297503087042,0.670872
1297503147042,0.658220
1297503207042,0.653642
1297503267042,0.664145
1297503327042,0.664458
1297503387042,0.664856
1297503447042,0.664973
1297503507042,0.665749
1297503567042,0.658943
1297503627042,0.666920
1297503687042,0.670335
1297503747042,0.654796
1297503807042,0.662526
1297503867042,0.663954
1297503927042,0.666638
1297503987042,0.664894
1297504047042,0.658941
1297504107042,0.662227
1297504167042,0.658912
1297504227042,0.661972
1297504287042,0.660089
1297504347042,0.656588
1297504407042,0.658481
1297504467042,0.658300
1297504527042,0.659500
1297504587042,0.663355
1297504647042,0.653520
1297504707042,0.652932
1297504767042,0.657771
1297504827054,0.653830
1297504887054,0.653362
1297504947054,0.659095
1297505007054,0.648243
1297505067054,0.654167
1297505127054,0.652464
1297505187054,0.656452
1297505247054,0.661770
1297505307054,0.655061
1297505367054,0.649459
1297505427054,0.648073
1297505487054,0.659227
1297505547054,0.657603
1297505607054,0.658470
1297505667054,0.652447
1297505727054,0.657736
1297505787054,0.644495
1297505847054,0.646703
1297505907054,0.650797
1297505967054,0.652759
1297506027054,0.658152
1297506087054,0.652868
1297506147054,0.653016
1297506207054,0.655872
1297506267054,0.650576
1297506327054,0.655415
1297506387054,0.658123
1297506447054,0.655116
1297506507054,0.663014
1297506567054,0.651445
1297506627054,0.651605
1297506687054,0.660744
1297506747054,0.654480
1297506807054,0.652106
1297506867054,0.648373
1297506927054,0.656520
1297506987054,0.656094
1297507047054,0.653154
1297507107054,0.653772
1297507167054,0.653373
1297507227054,0.654251
1297507287054,0.651414
1297507347054,0.646826
1297507407054,0.657276
1297507467054,0.649696
1297507527054,0.652282
1297507587054,0.654455
1297507647054,0.652346
1297507707054,0.657764
1297507767054,0.649581
1297507827054,0.656182
1297507887054,0.658276
1297507947054,0.656874
1297508007054,0.659720
1297508067054,0.654037
1297508127054,0.660888
1297508187054,0.660826
1297508247054,0.666222
1297508307054,0.663130
1297508367054,0.655432
1297508427066,0.653947
1297508487066,0.650638
1297508547066,0.655109
1297508607065,0.655201
1297508667065,0.655993
1297508727065,0.651691
1297508787065,0.652571
1297508847065,0.650244
1297508907065,0.650023
1297508967065,0.644806
1297509027065,0.660375
1297509087065,0.652641
1297509627066,0.645932
1297509687066,0.651553
1297509747066,0.653356
1297509807066,0.654679
1297509867066,0.647528
1297509927066,0.647104
1297509987065,0.649152
1297510047065,0.650125
1297510107065,0.646953
1297510167065,0.651596
1297510227065,0.650573
1297510287065,0.649169
1297510347065,0.652974
1297510407065,0.650871
1297510467065,0.645887
1297510527066,0.650638
1297510587066,0.649032
1297510647065,0.653359
1297510707065,0.643515
1297510767065,0.651829
1297510827065,0.649058
1297510887066,0.647432
1297510947066,0.643209
1297511007066,0.652394
1297511067066,0.644175
1297511127066,0.648756
1297511187066,0.647229
1297511247066,0.650282
1297511307065,0.651557
1297511367065,0.655949
1297511427065,0.641752
1297511487065,0.649831
1297511547065,0.657288
1297511607065,0.661756
1297511667065,0.657443
1297511727065,0.654842
1297511787065,0.643526
1297511847065,0.648378
1297511907066,0.651545
1297511967066,0.652406
1297512027077,0.656282
1297512087077,0.652472
1297512147077,0.660836
1297512207077,0.651402
1297512267077,0.655645
1297512327077,0.657070
1297512387077,0.657168
1297512447077,0.652080
1297512507077,0.656712
1297512567077,0.654819
1297512627077,0.652416
1297512687077,0.654486
1297512747077,0.654869
1297512807077,0.655301
1297512867077,0.651065
1297512927077,0.657065
1297512987077,0.652279
1297513047077,0.658955
1297513107077,0.659068
1297513167077,0.651756
1297513227077,0.666368
1297513287077,0.655229
1297513347077,0.659347
1297513407077,0.651890
1297513467077,0.661452
1297513527077,0.658415
1297513587077,0.653618
1297513647077,0.660343
1297513707077,0.654415
1297513767077,0.657025
1297513827077,0.653978
1297513887077,0.646989
1297513947077,0.653076
1297514007077,0.651889
1297514067077,0.656380
1297514127077,0.649761
1297514187077,0.656414
1297514247077,0.650160
1297514307077,0.653496
1297514367077,0.654644
1297514427077,0.652084
1297514487077,0.654181
1297514547077,0.657821
1297514607077,0.646651
1297514667077,0.654787
1297514727077,0.657122
1297514787077,0.657536
1297514847077,0.652022
1297514907077,0.659071
1297514967077,0.655698
1297515027077,0.657319
1297515087077,0.656464
1297515147077,0.658424
1297515207077,0.659059
1297515267077,0.654740
1297515327077,0.657624
1297515387077,0.657467
1297515447077,0.653112
1297515507077,0.646759
1297515567077,0.651277
1297515627089,0.651216
1297515687089,0.657447
1297515747089,0.652778
1297515807089,0.655148
1297515867089,0.659002
1297515927089,0.657995
1297515987089,0.649787
1297516047089,0.651857
1297516107089,0.653424
1297516167089,0.655861
1297516227089,0.654362
1297516287089,0.654695
1297516347089,0.656024
1297516407089,0.648536
1297516467089,0.647327
1297516527089,0.654356
1297516587089,0.657366
1297516647089,0.654648
1297516707089,0.655361
1297516767089,0.648677
1297516827089,0.654468
1297516887089,0.646805
1297516947089,0.647034
1297517007089,0.651139
1297517067089,0.652121
1297517127089,0.650847
1297517187089,0.648922
1297517247089,0.648144
1297517307089,0.646693
1297517367089,0.648446
1297517427089,0.649865
1297517487089,0.648953
1297517547089,0.649232
1297517607089,0.651047
1297517667089,0.652759
1297517727089,0.640139
1297517787089,0.653966
1297517847089,0.650893
1297517907089,0.650231
1297517967089,0.644990
1297518027089,0.650903
1297518087089,0.649252
1297518147089,0.648529
1297518207089,0.650053
1297518267089,0.649831
1297518327089,0.645646
1297518387089,0.643667
1297518447089,0.654813
1297518507089,0.653599
1297518567089,0.654468
1297518627089,0.645542
1297518687089,0.648031
1297518747089,0.645614
1297518807089,0.647522
1297518867089,0.642334
1297518927089,0.644334
1297518987089,0.646519
1297519047089,0.644072
1297519107089,0.643484
1297519167089,0.646637
1297519227101,0.641075
1297519287101,0.650121
1297519347101,0.644856
1297519407101,0.649117
1297519467101,0.649510
1297519527101,0.643532
1297519587101,0.649841
1297519647101,0.642288
1297519707101,0.646426
1297519767101,0.645416
1297519827101,0.647218
1297519887101,0.649710
1297519947101,0.640230
1297520007101,0.649656
1297520067101,0.640574
1297520127101,0.649362
1297520187101,0.649341
1297520247101,0.645566
1297520307101,0.651006
1297520367101,0.649375
1297520427101,0.640905
1297520487101,0.643517
1297520547101,0.644370
1297520607101,0.648106
1297520667101,0.653858
1297520727101,0.656639
1297520787101,0.656055
1297520847101,0.653400
1297520907101,0.652462
1297520967101,0.655076
1297521027101,0.657251
1297521087101,0.658767
1297521147101,0.653231
1297521207101,0.662323
1297521267101,0.659556
1297521327101,0.658829
1297521387101,0.670364
1297521447101,0.665990
1297521507101,0.663619
1297521567101,0.668582
1297521627101,0.669859
1297521687101,0.669779
1297521747101,0.679040
1297521807101,0.683893
1297521867101,0.677643
1297521927101,0.673525
1297521987101,0.676470
1297522047101,0.681156
1297522107101,0.678145
1297522167101,0.680605
1297522227101,0.686048
1297522287101,0.690315
1297522347101,0.679774
1297522407101,0.684991
1297522467101,0.692263
1297522527101,0.684202
1297522587101,0.696500
1297522647101,0.686728
1297522707101,0.696047
1297522767101,0.709571
1297522827113,0.717758
1297522887113,0.723461
1297522947113,0.732203
1297523007113,0.751068
1297523067113,0.765794
1297523127113,0.772038
1297523187113,0.782362
1297523247113,0.799307
1297523307113,0.803576
1297523367113,0.809476
1297523427113,0.810548
1297523487113,0.817698
1297523547113,0.818585
1297523607113,0.811078
1297523667113,0.815741
1297523727113,0.801302
1297523787113,0.805904
1297523847113,0.795812
1297523907113,0.796837
1297523967113,0.792736
1297524027113,0.786845
1297524087113,0.774418
1297524147113,0.761017
1297524207113,0.761284
1297524267113,0.756013
1297524327113,0.751077
1297524387113,0.731375
1297524447113,0.734789
1297524507113,0.722340
1297524567113,0.723068
1297524627113,0.724199
1297524687113,0.714554
1297524747113,0.708144
1297524807113,0.709686
1297524867113,0.702544
1297524927113,0.702398
1297524987113,0.699699
1297525047113,0.700629
1297525107113,0.699796
1297525167113,0.690105
1297525227113,0.684107
1297525287113,0.691085
1297525347113,0.686917
1297525407113,0.685699
1297525467113,0.686170
1297525527113,0.679559
1297525587113,0.684329
1297525647113,0.682228
1297525707113,0.684122
1297525767113,0.678938
1297525827113,0.666140
1297525887113,0.672496
1297525947113,0.674850
1297526007113,0.672398
1297526067113,0.675117
1297526127113,0.678624
1297526187113,0.674235
1297526247113,0.672620
1297526307113,0.669150
1297526367113,0.669354
1297526427124,0.668449
1297526487124,0.664993
1297526547124,0.667696
1297526607124,0.664726
1297526667124,0.663062
1297526727124,0.670476
1297526787124,0.666636
1297526847124,0.666608
1297526907124,0.661053
1297526967124,0.658359
1297527027124,0.664547
1297527087124,0.659495
1297527147124,0.666644
1297527207124,0.654765
1297527267124,0.653730
1297527327124,0.653002
1297527387124,0.653538
1297527447124,0.658719
1297527507124,0.662746
1297527567124,0.663284
1297527627124,0.655387
1297527687124,0.658087
1297527747124,0.654143
1297527807124,0.663613
1297527867124,0.655225
1297527927124,0.657934
1297527987124,0.662742
1297528047124,0.648808
1297528107124,0.655355
1297528167124,0.651786
1297528227124,0.651157
1297528287124,0.654734
1297528347124,0.651772
1297528407124,0.655865
1297528467124,0.646952
1297528527124,0.654465
1297528587124,0.656232
1297528647124,0.648532
1297528707124,0.649778
1297528767124,0.648684
1297528827124,0.647900
1297528887124,0.642538
1297528947124,0.644860
1297529007124,0.649028
1297529067124,0.656712
1297529127124,0.656511
1297529187124,0.648235
1297529247124,0.647688
1297529307124,0.643659
1297529367124,0.648831
1297529427124,0.649264
1297529487124,0.644339
1297529547124,0.650266
1297529607124,0.644907
1297529667124,0.646394
1297529727124,0.647439
1297529787124,0.641763
1297529847124,0.645773
1297529907124,0.650484
1297529967124,0.641684
1297530027136,0.649007
1297530087136,0.649925
1297530147136,0.641159
1297530207136,0.650694
1297530267136,0.648023
1297530327136,0.642770
1297530387136,0.646062
1297530447136,0.647472
1297530507136,0.647222
1297530567136,0.642189
1297530627136,0.645608
1297530687136,0.649356
1297530747136,0.647269
1297530807136,0.646938
1297530867136,0.644849
1297530927136,0.649293
1297530987136,0.650371
1297531047136,0.647030
1297531107136,0.642935
1297531167136,0.649020
1297531227136,0.653982
1297531287136,0.643735
1297531347136,0.644490
1297531407136,0.650575
1297531467136,0.648640
1297531527136,0.652511
1297531587136,0.653228
1297531647136,0.649538
1297531707136,0.651645
1297531767136,0.654849
1297531827136,0.652487